Weather History for Coral Harbour, NU

Change the Weather History Date:

Wednesday, October 5, 2011

  Actual Average Record
Temperature  
Mean Temperature 22 °F -  
Max Temperature 33 °F 22 °F 39 °F (2008)
Min Temperature 12 °F 9 °F 14 °F (1999)
Degree Days  
Heating Degree Days 42    
Moisture  
Dew Point 24 °F    
Average Humidity 93    
Maximum Humidity 100    
Minimum Humidity 77    
Precipitation  
Precipitation 0.08 in 0.04 in - ()
Sea Level Pressure  
Sea Level Pressure 30.40 in    
Wind  
Wind Speed 8 mph ()    
Max Wind Speed 85 mph    
Max Gust Speed -    
Visibility 10.4 miles    
Events Snow    
Averages and records for this station are not official NWS values.
T = Trace of Precipitation, MM = Missing Value Source: Averaged Metar Reports

Daily Weather History Graph

Daily Weather History Graph

Search for Another Location

Airport:

Trip Planner

Search our weather history database for the weather conditions in past years. The results will help you decide how hot, cold, wet, or windy it might be!

Date:

Astronomy

Oct. 05, 2011 Rise Set
Actual Time 7:53 AM EDT 6:48 PM EDT
Civil Twilight 7:05 AM EDT 7:36 PM EDT
Nautical Twilight 6:09 AM EDT 8:32 PM EDT
Astronomical Twilight 5:10 AM EDT 9:30 PM EDT
Moon 5:21 PM EDT (10/5) No Moon Set
Length of Visible Light 12h 30m
Length of Day
10h 55m
Waxing Gibbous, 66% of the Moon is Illuminated
Oct 5
Waxing Gibbous
Oct 11
Full
Oct 19
Last Quarter
Oct 26
New
Nov 2
First Quarter

Hourly Weather History & Observations

Time (EDT) Temp. Windchill Dew Point Humidity Pressure Visibility Wind Dir Wind Speed Gust Speed Precip Events Conditions
12:00 AM 24.8 °F - 23.0 °F 93% 30.42 in 15.0 mi Calm Calm - N/A   Clear
1:00 AM 23.0 °F 13.9 °F 19.4 °F 86% 30.43 in 15.0 mi North 8.1 mph - N/A   Clear
2:00 AM 20 °F - 16 °F 77% 30.45 in 15 mi North 9.2 mph - -  
2:00 AM 19.4 °F 8.6 °F 15.8 °F 86% 30.45 in 15.0 mi North 9.2 mph - N/A   Clear
3:00 AM 19.4 °F - 15.8 °F 86% 30.45 in 15.0 mi North 2.3 mph - N/A   Clear
4:00 AM 17.6 °F - 15.8 °F 93% 30.45 in 15.0 mi Calm Calm - N/A   Clear
5:00 AM 14.0 °F 3.9 °F 10.4 °F 86% 30.46 in 15.0 mi NNW 6.9 mph - N/A   Clear
6:00 AM 15.8 °F 10.2 °F 14.0 °F 93% 30.46 in 15.0 mi NNE 3.5 mph - N/A   Clear
7:00 AM 17.6 °F 9.3 °F 15.8 °F 93% 30.47 in 15.0 mi NE 5.8 mph - N/A   Clear
8:00 AM 16 °F - 16 °F 99% 30.46 in 15 mi NE 4.6 mph - -   Scattered Clouds
8:00 AM 15.8 °F 8.6 °F 15.8 °F 100% 30.46 in 15.0 mi NE 4.6 mph - N/A   Mostly Cloudy
9:00 AM 21.2 °F 14.9 °F 19.4 °F 93% 30.45 in 15.0 mi ENE 4.6 mph - N/A   Mostly Cloudy
10:12 AM - - - N/A% - 12.0 mi East 3.5 mph - N/A   Unknown
11:00 AM 26.6 °F 19.1 °F 24.8 °F 93% 30.45 in 12.0 mi East 6.9 mph - N/A Snow Light Snow
11:47 AM - - - N/A% - 3.0 mi South 2.3 mph - N/A   Unknown
1:00 PM 30.2 °F 21.9 °F 28.4 °F 93% 30.42 in 10.0 mi South 9.2 mph - N/A Snow Light Snow
2:00 PM 31 °F - 29 °F 91% 30.39 in 6 mi SSE 13.8 mph - - Snow Light Snow
2:00 PM 32.0 °F 22.1 °F 30.2 °F 93% 30.39 in 6.0 mi SSE 13.8 mph - N/A Snow Light Snow
2:20 PM - - - N/A% - 2.0 mi SE 12.7 mph - N/A Snow Light Snow Grains
2:28 PM - - - N/A% - 4.0 mi SSE 16.1 mph - N/A Snow Light Snow Grains
3:00 PM 32.0 °F 21.2 °F 30.2 °F 93% 30.40 in 4.0 mi SSE 16.1 mph - N/A Snow Light Snow Grains
3:13 PM - - - N/A% - 0.8 mi SSE 11.5 mph - N/A   Unknown
3:26 PM - - - N/A% - 1.0 mi SSE 13.8 mph - N/A Snow Unknown
4:00 PM 30.2 °F 20.2 °F 30.2 °F 100% 30.38 in 2.0 mi SSE 12.7 mph - N/A Snow Light Snow
4:06 PM - - - N/A% - 12.0 mi SSE 12.7 mph - N/A   Unknown
5:00 PM 32.0 °F 23.0 °F 30.2 °F 93% 30.37 in 15.0 mi SSE 11.5 mph - N/A Snow Light Snow
6:00 PM 32.0 °F 21.6 °F 30.2 °F 93% 30.35 in 15.0 mi SSE 15.0 mph - N/A Snow Light Snow
7:00 PM 32.0 °F 22.1 °F 32.0 °F 100% 30.32 in 15.0 mi SSE 13.8 mph - N/A Snow Light Snow
8:00 PM 33 °F - 32 °F 93% 30.30 in 15 mi SSE 85.2 mph - - Snow Light Snow
8:00 PM 33.8 °F 23.5 °F 32.0 °F 93% 30.30 in 15.0 mi SSE 16.1 mph - N/A Snow Light Snow
9:00 PM 33.8 °F 23.5 °F 32.0 °F 93% 30.30 in 15.0 mi SSE 16.1 mph - N/A Snow Light Snow
10:00 PM 32.0 °F 20.8 °F 32.0 °F 100% 30.27 in 2.0 mi SSE 17.3 mph - N/A Snow Light Snow
10:29 PM - - - N/A% - 4.0 mi SSE 18.4 mph - N/A   Unknown
11:00 PM 32.0 °F 21.2 °F 32.0 °F 100% 30.23 in 4.0 mi SE 16.1 mph - N/A Snow Light Snow